Weather History for Newcastle, WY

Change the Weather History Date:

Saturday, May 18, 2013

  Actual Average (KCUT) Record (KCUT)
Temperature  
Mean Temperature 62 °F 49 °F  
Max Temperature 73 °F 61 °F 83 °F (1948)
Min Temperature 50 °F 37 °F 25 °F (1965)
Degree Days  
Heating Degree Days 4 16  
Month to date heating degree days 334  
Since 1 July heating degree days 7984  
Cooling Degree Days 0 0  
Month to date cooling degree days 0  
Year to date cooling degree days 0  
Growing Degree Days 12 (Base 50)    
Moisture  
Dew Point 48 °F    
Average Humidity 72    
Maximum Humidity 100    
Minimum Humidity 33    
Precipitation  
Precipitation 0.01 in 0.10 in 1.65 in (1978)
Month to date precipitation 1.68  
Year to date precipitation 5.67  
Sea Level Pressure  
Sea Level Pressure 29.84 in    
Wind  
Wind Speed 8 mph (NW)    
Max Wind Speed 31 mph    
Max Gust Speed 40 mph    
Visibility 10 miles    
Events Rain , Thunderstorm    
T = Trace of Precipitation, MM = Missing Value Source: NWS Daily Summary

Daily Weather History Graph

Daily Weather History Graph

Search for Another Location

Airport:

Trip Planner

Search our weather history database for the weather conditions in past years. The results will help you decide how hot, cold, wet, or windy it might be!

Date:

Astronomy

May. 18, 2013 Rise Set
Actual Time 5:28 AM MDT 8:19 PM MDT
Civil Twilight 4:54 AM MDT 8:53 PM MDT
Nautical Twilight 4:11 AM MDT 9:36 PM MDT
Astronomical Twilight 3:21 AM MDT 10:26 PM MDT
Moon 1:12 PM MDT (5/18) 1:36 AM MDT (5/18)
Length of Visible Light 15h 59m
Length of Day
14h 51m
First Quarter, 56% of the Moon is Illuminated
May 18
First Quarter
May 24
Full
May 31
Last Quarter
Jun 8
New
Jun 16
First Quarter

Hourly Weather History & Observations

Time (MDT) Temp. Dew Point Humidity Pressure Visibility Wind Dir Wind Speed Gust Speed Precip Events Conditions
12:15 AM 55.4 °F 48.2 °F 77% 29.82 in 10.0 mi NNE 9.2 mph - N/A   Clear
12:35 AM 55.4 °F 48.2 °F 77% 29.82 in 10.0 mi North - - N/A   Clear
12:55 AM 53.6 °F 48.2 °F 82% 29.82 in 10.0 mi Calm Calm - N/A   Clear
1:15 AM 55.4 °F 48.2 °F 77% 29.82 in 10.0 mi Calm Calm - N/A   Clear
1:35 AM 53.6 °F 48.2 °F 82% 29.82 in 10.0 mi Calm Calm - N/A   Clear
1:55 AM 53.6 °F 48.2 °F 82% 29.82 in 10.0 mi WNW 8.1 mph - N/A   Clear
2:15 AM 53.6 °F 48.2 °F 82% 29.83 in 10.0 mi Calm Calm - N/A   Clear
2:35 AM 51.8 °F 46.4 °F 82% 29.85 in 10.0 mi NNW 8.1 mph - N/A   Clear
2:55 AM 51.8 °F 48.2 °F 88% 29.86 in 10.0 mi NW 4.6 mph - N/A   Clear
3:15 AM 51.8 °F 48.2 °F 88% 29.85 in 10.0 mi WNW 5.8 mph - N/A   Clear
3:35 AM 51.8 °F 50.0 °F 94% 29.86 in 10.0 mi West 9.2 mph - N/A   Clear
3:55 AM 51.8 °F 48.2 °F 88% 29.85 in 10.0 mi NNW 9.2 mph - N/A   Clear
4:15 AM 51.8 °F 50.0 °F 94% 29.85 in 10.0 mi WNW 5.8 mph - N/A   Clear
4:35 AM 50.0 °F 50.0 °F 100% 29.87 in 10.0 mi WNW 10.4 mph - N/A   Clear
4:55 AM 50.0 °F 50.0 °F 100% 29.86 in 2.5 mi WNW 10.4 mph - N/A   Mostly Cloudy
5:15 AM 50.0 °F 50.0 °F 100% 29.85 in 2.5 mi NNW 11.5 mph - N/A   Overcast
5:35 AM 50.0 °F 50.0 °F 100% 29.86 in 5.0 mi WNW 11.5 mph - N/A   Overcast
5:55 AM 50.0 °F 48.2 °F 94% 29.86 in 10.0 mi WNW 8.1 mph - N/A   Scattered Clouds
6:15 AM 50.0 °F 50.0 °F 100% 29.87 in 7.0 mi NW 10.4 mph - N/A   Mostly Cloudy
6:35 AM 50.0 °F 50.0 °F 100% 29.89 in 10.0 mi NW 9.2 mph - N/A   Overcast
6:55 AM 51.8 °F 50.0 °F 94% 29.89 in 10.0 mi NW 9.2 mph - N/A   Overcast
7:15 AM 51.8 °F 50.0 °F 94% 29.89 in 10.0 mi NW 11.5 mph - N/A   Overcast
7:35 AM 53.6 °F 50.0 °F 88% 29.89 in 10.0 mi NW 9.2 mph - N/A   Overcast
7:55 AM 53.6 °F 50.0 °F 88% 29.90 in 10.0 mi NW 6.9 mph - N/A   Overcast
8:15 AM 53.6 °F 50.0 °F 88% 29.90 in 10.0 mi WNW 9.2 mph - N/A   Overcast
8:35 AM 55.4 °F 51.8 °F 88% 29.90 in 10.0 mi WNW 8.1 mph - N/A   Overcast
8:55 AM 55.4 °F 51.8 °F 88% 29.90 in 10.0 mi West 6.9 mph - N/A   Overcast
9:15 AM 55.4 °F 51.8 °F 88% 29.90 in 10.0 mi NW 5.8 mph - N/A   Overcast
9:35 AM 57.2 °F 51.8 °F 82% 29.89 in 10.0 mi NW 6.9 mph - N/A   Mostly Cloudy
9:55 AM 59.0 °F 51.8 °F 77% 29.89 in 10.0 mi NW 4.6 mph - N/A   Scattered Clouds
10:15 AM 60.8 °F 51.8 °F 72% 29.89 in 10.0 mi West 8.1 mph - N/A   Clear
10:35 AM 60.8 °F 51.8 °F 72% 29.88 in 10.0 mi West 3.5 mph - N/A   Scattered Clouds
10:55 AM 62.6 °F 51.8 °F 68% 29.87 in 10.0 mi WNW 4.6 mph - N/A   Clear
11:15 AM 62.6 °F 50.0 °F 63% 29.87 in 10.0 mi WNW 4.6 mph - N/A   Clear
11:35 AM 66.2 °F 51.8 °F 60% 29.87 in 10.0 mi WSW 6.9 mph - N/A   Clear
11:55 AM 64.4 °F 51.8 °F 64% 29.86 in 10.0 mi WSW 6.9 mph - N/A   Scattered Clouds
12:15 PM 64.4 °F 51.8 °F 64% 29.86 in 10.0 mi West 3.5 mph - N/A   Scattered Clouds
12:35 PM 64.4 °F 51.8 °F 64% 29.86 in 10.0 mi WNW 9.2 mph - N/A   Scattered Clouds
1:15 PM 66.2 °F 51.8 °F 60% 29.85 in 10.0 mi NW 8.1 mph - N/A   Clear
1:35 PM 66.2 °F 51.8 °F 60% 29.85 in 10.0 mi WNW 4.6 mph - N/A Thunderstorm Thunderstorm
1:55 PM 68.0 °F 51.8 °F 56% 29.83 in 10.0 mi NW 4.6 mph - N/A   Clear
2:15 PM 68.0 °F 50.0 °F 52% 29.83 in 10.0 mi Calm Calm - N/A   Clear
2:35 PM 69.8 °F 50.0 °F 49% 29.82 in 10.0 mi WNW 5.8 mph - N/A Thunderstorm Clear
2:55 PM 69.8 °F 46.4 °F 43% 29.82 in 10.0 mi WNW 5.8 mph - N/A   Clear
3:15 PM 69.8 °F 46.4 °F 43% 29.81 in 10.0 mi WNW 8.1 mph - N/A   Clear
3:35 PM 71.6 °F 44.6 °F 38% 29.81 in 10.0 mi Calm Calm - N/A   Clear
4:15 PM 71.6 °F 46.4 °F 41% 29.80 in 10.0 mi NNW 6.9 mph - N/A   Clear
4:35 PM 71.6 °F 44.6 °F 38% 29.79 in 10.0 mi WNW 3.5 mph - N/A   Clear
4:55 PM 71.6 °F 42.8 °F 35% 29.78 in 10.0 mi Calm Calm - N/A   Clear
5:15 PM 73.4 °F 42.8 °F 33% 29.76 in 10.0 mi Calm Calm - N/A   Clear
5:35 PM 73.4 °F 42.8 °F 33% 29.74 in 10.0 mi SSE 5.8 mph - N/A Rain Light Rain
5:55 PM 69.8 °F 42.8 °F 38% 29.73 in 10.0 mi SSE 5.8 mph - N/A Rain , Thunderstorm Light Thunderstorms and Rain
6:15 PM 68.0 °F 44.6 °F 43% 29.74 in 10.0 mi SSW 5.8 mph - N/A Thunderstorm Clear
6:35 PM 60.8 °F 46.4 °F 59% 29.80 in 10.0 mi WNW 31.1 mph 40.3 mph N/A Rain , Thunderstorm Light Thunderstorms and Rain
6:55 PM 55.4 °F 50.0 °F 82% 29.84 in 10.0 mi NW 20.7 mph 33.4 mph N/A Rain Light Rain
7:15 PM 53.6 °F 50.0 °F 88% 29.83 in 5.0 mi North 21.9 mph 33.4 mph N/A Rain Rain
7:35 PM 53.6 °F 50.0 °F 88% 29.84 in 7.0 mi North 16.1 mph 25.3 mph 0.01 in Rain Light Rain
7:55 PM 53.6 °F 48.2 °F 82% 29.82 in 10.0 mi North 21.9 mph 32.2 mph 0.01 in Thunderstorm Scattered Clouds
8:15 PM 53.6 °F 44.6 °F 72% 29.82 in 10.0 mi North 24.2 mph 38.0 mph N/A   Clear
8:35 PM 55.4 °F 42.8 °F 63% 29.80 in 10.0 mi NNE 24.2 mph 34.5 mph N/A   Clear
8:55 PM 55.4 °F 42.8 °F 63% 29.80 in 10.0 mi NNE 25.3 mph 35.7 mph N/A   Clear
9:15 PM 55.4 °F 42.8 °F 63% 29.79 in 10.0 mi NNE 20.7 mph 32.2 mph N/A   Clear
9:35 PM 57.2 °F 41.0 °F 55% 29.78 in 10.0 mi NNE 13.8 mph 21.9 mph N/A Thunderstorm Clear
9:55 PM 57.2 °F 41.0 °F 55% 29.78 in 10.0 mi North 6.9 mph - N/A   Clear
10:15 PM 57.2 °F 41.0 °F 55% 29.77 in 10.0 mi North 6.9 mph - N/A   Clear
10:35 PM 55.4 °F 42.8 °F 63% 29.79 in 10.0 mi NW 15.0 mph 24.2 mph N/A   Clear
10:55 PM 53.6 °F 44.6 °F 72% 29.79 in 10.0 mi NW 15.0 mph - N/A   Clear
11:15 PM 53.6 °F 44.6 °F 72% 29.80 in 10.0 mi West 5.8 mph - N/A   Clear
11:35 PM 51.8 °F 46.4 °F 82% 29.81 in 10.0 mi NW 8.1 mph - N/A   Scattered Clouds